Location: Peebles
(55.6412°N, 3.1714°W)
Time: 13:46:42
(UTC+01:00)

ARIANE 5 R/B - Pass Details

Date: 09 July 2022
Orbit: 749 x 794 km, 98.7° (Epoch: 16 August)

Event Time Altitude Azimuth Distance (km) Brightness Sun altitude
Rises 03:27:56 0° 28° (NNE) 3,227 8.4 -7.2°
Reaches altitude 10° 03:31:29 10° 54° (NE) 2,303 6.3 -7.0°
Maximum altitude 03:34:00 14° 84° (E) 2,060 5.3 -6.8°
Drops below altitude 10° 03:36:30 10° 114° (ESE) 2,309 5.1 -6.6°
Sets 03:40:04 0° 140° (SE) 3,240 5.6 -6.3°
